Weather observations for the past three days for
Houston Executive Airport
Metric (Imperial)
Date Time (cdt) Wind (kph) Vis. (km) Weather Sky Cond. Temperature (ºC) Relative Humidity Wind Chill (°C) Heat Index (°C) Pressure Precipitation (cm)
Air Dwpt 6 hour altimeter (cm) sea level (mb) 1 hr 3 hr 6 hr
Max. Min.
04 21:55 S 15 16.09 Mostly Cloudy SCT035 BKN042 22 19 83% 75.87 0.0
04 21:35 S 15 16.09 Overcast OVC035 22 19 83% 75.9 0.0
04 21:15 S 17 16.09 Overcast OVC035 23 19 78% 75.84 0.0
04 20:55 S 15 16.09 Overcast OVC034 23 18 74% 75.84 0.0
04 20:35 S 22 16.09 Overcast OVC034 24 18 69% 25 75.84 0.0
04 20:15 S 22 16.09 Mostly Cloudy BKN036 24 18 69% 25 75.82 0.0
04 19:55 S 20 16.09 A Few Clouds FEW037 24 19 74% 25 75.82 0.0
04 19:35 S 17 16.09 Partly Cloudy SCT037 24 18 69% 25 75.82 0.0
04 19:15 S 22 16.09 Partly Cloudy SCT038 SCT046 25 18 65% 26 75.82 0.0
04 18:55 S 22 16.09 Partly Cloudy SCT046 25 18 65% 26 75.82 0.0
04 18:35 S 24 16.09 Overcast OVC046 26 19 65% 27 75.84 0.0
04 18:15 S 22 16.09 Overcast OVC047 25 18 65% 26 75.87 0.0
04 17:55 S 26 16.09 Overcast OVC046 26 18 61% 27 75.87 0.0
04 17:35 SW 22 G 33 16.09 Overcast OVC047 26 18 61% 27 75.87 0.0
04 17:15 S 22 16.09 Overcast OVC049 26 18 61% 27 75.9 0.0
04 16:55 S 28 16.09 Overcast FEW039 OVC049 26 18 61% 27 75.9 0.0
04 16:35 S 22 G 33 16.09 Overcast OVC046 26 18 61% 27 75.92 0.0
04 16:15 S 19 G 30 16.09 Overcast OVC047 27 17 54% 28 75.95 0.0
04 15:55 S 20 16.09 Overcast OVC045 28 17 51% 29 75.95 0.0
04 15:35 S 19 16.09 Mostly Cloudy BKN047 27 17 54% 28 75.97 0.0
04 15:15 SW 13 G 28 16.09 Partly Cloudy SCT049 27 17 54% 28 76 0.0
04 14:55 SW 20 16.09 Mostly Cloudy BKN047 28 17 51% 29 76.02 0.0
04 14:35 S 15 16.09 Overcast OVC046 27 17 54% 28 76.05 0.0
04 14:15 SW 17 16.09 Mostly Cloudy BKN046 BKN050 27 17 54% 28 76.05 0.0
04 13:55 S 19 G 28 16.09 Overcast OVC046 27 17 54% 28 76.07 0.0
04 13:35 S 15 G 30 16.09 Overcast BKN044 OVC049 27 16 51% 27 76.1 0.0
04 13:15 S 20 16.09 Mostly Cloudy BKN044 BKN050 27 17 54% 28 76.1 0.0
04 12:55 S 22 G 37 16.09 Mostly Cloudy BKN042 27 16 51% 27 76.1 0.0
04 12:15 SW 20 16.09 A Few Clouds FEW038 FEW044 26 16 54% 27 76.17 0.0
04 11:55 SW 17 16.09 Partly Cloudy SCT038 25 16 57% 26 76.2 0.0
04 11:35 S 26 16.09 Mostly Cloudy BKN036 BKN042 25 16 57% 26 76.2 0.0
04 11:15 S 17 G 31 16.09 Mostly Cloudy BKN036 25 16 57% 26 76.23 0.0
04 10:55 SW 22 16.09 Partly Cloudy SCT034 SCT040 24 16 61% 25 76.23 0.0
04 10:35 S 20 16.09 Partly Cloudy SCT032 24 16 61% 25 76.25 0.0
04 10:15 SW 22 16.09 Fair CLR 24 16 61% 25 76.23 0.0
04 09:55 S 17 16.09 Fair CLR 24 16 61% 25 76.25 0.0
04 09:35 S 19 16.09 Fair CLR 23 15 61% 76.25 0.0
04 09:15 S 19 16.09 Fair CLR 22 15 65% 76.23 0.0
04 08:55 S 15 16.09 Fair CLR 22 15 65% 76.25 0.0
04 08:35 S 11 16.09 Fair CLR 21 14 64% 76.25 0.0
04 08:15 S 9 16.09 Fair CLR 19 14 73% 76.25 0.0
04 07:55 SE 7 16.09 Fair CLR 18 14 78% 76.23 0.0
04 07:35 S 7 14.48 Fair CLR 17 14 83% 76.23 0.0
04 07:15 S 9 16.09 Fair CLR 16 13 83% 76.23 0.0
04 06:55 S 9 16.09 Fair CLR 15 13 88% 76.2 0.0
04 06:35 S 9 16.09 Fair CLR 15 13 88% 76.23 0.0
04 06:15 S 7 16.09 Fair CLR 15 13 88% 76.23 0.0
04 05:55 SE 9 16.09 Fair CLR 15 13 88% 76.23 0.0
04 05:35 SE 6 16.09 Fair CLR 15 13 88% 76.2 0.0
04 05:15 S 9 16.09 Fair CLR 15 13 88% 76.2 0.0
04 04:55 S 11 16.09 Fair CLR 15 13 88% 76.23 0.0
04 04:35 S 9 16.09 Fair CLR 15 13 88% 76.25 0.0
04 04:15 S 9 16.09 Fair CLR 15 13 88% 76.25 0.0
04 03:55 S 7 16.09 Fair CLR 16 13 83% 76.28 0.0
04 03:35 S 9 16.09 Fair CLR 16 13 83% 76.25 0.0
04 03:15 S 7 16.09 Fair CLR 16 13 83% 76.28 0.0
04 02:55 S 9 16.09 Fair CLR 16 13 83% 76.3 0.0
04 02:35 S 7 16.09 Fair CLR 16 13 83% 76.33 0.0
04 02:15 S 9 16.09 Fair CLR 16 13 83% 76.35 0.0
04 01:55 S 9 16.09 Fair CLR 16 13 83% 76.38 0.0
04 01:35 S 7 16.09 Fair CLR 16 13 83% 76.4 0.0
04 01:15 S 9 16.09 Fair CLR 16 13 83% 76.4 0.0
04 00:55 S 9 16.09 Fair CLR 16 13 83% 76.4 0.0
04 00:35 S 9 16.09 Fair CLR 16 13 83% 76.4 0.0
04 00:15 S 11 16.09 Fair CLR 17 13 77% 76.43 0.0
03 23:55 S 11 16.09 Fair CLR 17 13 77% 76.45 0.0
03 23:35 S 9 16.09 Fair CLR 17 13 77% 76.45 0.0
03 23:15 S 11 16.09 Fair CLR 17 13 77% 76.45 0.0
03 22:55 S 11 16.09 Fair CLR 18 13 73% 76.45 0.0
03 22:35 S 11 16.09 Fair CLR 18 12 68% 76.45 0.0
03 22:15 S 15 16.09 Fair CLR 19 12 64% 76.43 0.0
03 21:55 S 15 16.09 Fair CLR 19 12 64% 76.43 0.0
03 21:35 S 15 16.09 Fair CLR 20 11 56% 76.4 0.0
03 21:15 S 13 16.09 Fair CLR 20 11 56% 76.4 0.0
03 20:55 S 13 G 22 16.09 Fair CLR 21 11 53% 76.4 0.0
03 20:35 S 15 16.09 Fair CLR 22 10 47% 76.38 0.0
03 20:15 S 15 16.09 Fair CLR 22 10 47% 76.38 0.0
03 19:55 S 15 16.09 Fair CLR 22 10 47% 76.38 0.0
03 19:35 S 17 16.09 Fair CLR 23 10 44% 76.38 0.0
03 19:15 S 15 16.09 Fair CLR 23 10 44% 76.38 0.0
03 18:55 S 13 16.09 Fair CLR 25 8 34% 26 76.38 0.0
03 18:35 SW 13 16.09 Fair CLR 25 7 32% 25 76.38 0.0
03 18:15 SW 11 G 24 16.09 Fair CLR 26 7 30% 26 76.4 0.0
03 17:55 SW 17 16.09 Fair CLR 26 7 30% 26 76.4 0.0
03 17:35 S 19 16.09 Fair CLR 26 8 32% 26 76.43 0.0
03 17:15 S 13 G 22 16.09 Fair CLR 26 7 30% 26 76.43 0.0
03 16:55 SW 11 G 22 16.09 Fair CLR 26 7 30% 26 76.45 0.0
03 16:35 S 15 16.09 Fair CLR 26 8 32% 26 76.45 0.0
03 16:15 SW 13 16.09 Fair CLR 27 8 30% 26 76.5 0.0
03 15:55 S 9 16.09 A Few Clouds FEW080 26 7 30% 26 76.5 0.0
03 15:35 Calm 16.09 Fair CLR 27 7 28% 26 76.53 0.0
03 15:15 Calm 16.09 Fair CLR 26 8 32% 26 76.56 0.0
03 14:55 E 15 16.09 Fair CLR 26 8 32% 26 76.58 0.0
03 14:35 Vrbl 7 16.09 Fair CLR 26 8 32% 26 76.61 0.0
03 13:55 S 7 G 20 16.09 Fair CLR 25 8 34% 26 76.66 0.0
03 13:35 Calm 16.09 Fair CLR 25 8 34% 26 76.68 0.0
03 13:15 Calm 14.48 Fair CLR 25 8 34% 26 76.68 0.0
03 12:55 Calm 16.09 Fair CLR 25 8 34% 26 76.71 0.0
03 12:35 SE 11 16.09 Fair CLR 26 10 37% 26 76.73 0.0
03 12:15 Calm 16.09 Fair CLR 24 7 34% 25 76.76 0.0
03 11:55 Calm 16.09 Fair CLR 25 9 36% 26 76.78 0.0
03 11:35 E 7 16.09 Fair CLR 24 8 36% 25 76.78 0.0
03 11:15 SE 11 G 20 4.83 Fair with Haze CLR 24 9 39% 25 76.78 0.0
03 10:55 S 9 16.09 Fair CLR 24 9 39% 25 76.78 0.0
03 10:35 S 11 16.09 Fair CLR 24 10 41% 25 76.78 0.0
03 10:15 Vrbl 9 16.09 Fair CLR 23 9 41% 76.78 0.0
03 09:55 S 11 16.09 Fair CLR 23 11 47% 76.76 0.0
03 09:35 S 11 16.09 Fair CLR 22 12 53% 76.76 0.0
03 09:15 S 7 16.09 Fair CLR 21 14 64% 76.76 0.0
03 08:55 Calm 16.09 Fair CLR 21 14 64% 76.76 0.0
03 08:35 SW 6 16.09 Fair CLR 20 15 73% 76.73 0.0
03 08:15 Calm 14.48 Fair CLR 18 15 83% 76.73 0.0
03 07:55 Calm 14.48 Fair CLR 18 16 88% 76.73 0.0
03 07:35 Calm 14.48 Fair CLR 16 16 100% 76.71 0.0
03 07:15 Calm 9.66 Fog/Mist CLR 14 14 100% 76.68 0.0
03 06:55 Calm 11.27 Fair CLR 14 14 100% 76.68 0.0
03 06:35 Calm 12.87 Fair CLR 14 14 100% 76.68 0.0
03 06:15 Calm 14.48 Fair CLR 14 14 100% 76.66 0.0
03 05:55 Calm 16.09 Fair CLR 14 14 100% 76.66 0.0
03 05:35 Calm 16.09 Fair CLR 14 14 100% 76.63 0.0
03 05:15 Calm 16.09 Fair CLR 14 14 100% 76.63 0.0
03 04:55 Calm 16.09 Fair CLR 14 14 100% 76.63 0.0
03 04:35 Calm 16.09 Fair CLR 15 15 100% 76.63 0.0
03 04:15 Calm 16.09 Fair CLR 14 14 100% 76.61 0.0
03 03:55 Calm 16.09 Fair CLR 15 15 100% 76.61 0.0
03 03:35 Calm 16.09 Fair CLR 15 15 100% 76.61 0.0
03 03:15 Calm 16.09 Fair CLR 16 15 94% 76.63 0.0
03 02:55 Calm 16.09 Fair CLR 16 15 94% 76.63 0.0
03 02:35 Calm 16.09 Fair CLR 17 15 88% 76.63 0.0
03 02:15 Calm 16.09 Fair CLR 16 15 94% 76.63 0.0
03 01:55 Calm 16.09 Fair CLR 17 15 88% 76.63 0.0
03 01:35 Calm 16.09 Fair CLR 17 14 83% 76.63 0.0
03 01:15 Calm 16.09 Fair CLR 17 15 88% 76.63 0.0
03 00:55 Calm 16.09 Fair CLR 17 15 88% 76.63 0.0
03 00:35 Calm 16.09 Fair CLR 17 15 88% 76.63 0.0
03 00:15 Calm 16.09 Fair CLR 17 15 88% 76.61 0.0
02 23:55 Calm 16.09 Fair CLR 17 15 88% 76.63 0.0
02 23:35 Calm 16.09 Fair CLR 17 15 88% 76.61 0.0
02 23:15 Calm 16.09 Fair CLR 17 15 88% 76.61 0.0
02 22:55 Calm 16.09 Fair CLR 18 15 83% 76.61 0.0
02 22:35 N 6 16.09 Fair CLR 18 15 83% 76.58 0.0
02 22:15 Calm 16.09 Fair CLR 18 15 83% 76.56 0.0
02 21:55 Calm 16.09 Fair CLR 19 15 78% 76.56 0.0
02 21:35 Calm 16.09 Fair CLR 19 15 78% 76.56 0.0
02 21:15 Calm 16.09 Fair CLR 19 14 73% 76.53 0.0
02 20:55 N 6 16.09 Fair CLR 20 13 64% 76.53 0.0
02 20:35 N 6 16.09 Fair CLR 20 13 64% 76.5 0.0
02 20:15 N 6 16.09 Fair CLR 21 13 60% 76.48 0.0
02 19:55 N 6 16.09 Fair CLR 21 13 60% 76.48 0.0
02 19:35 NE 7 16.09 Fair CLR 21 13 60% 76.45 0.0
02 19:15 NE 11 16.09 Fair CLR 22 11 50% 76.45 0.0
02 18:55 N 13 16.09 Fair CLR 23 10 44% 76.45 0.0
02 18:35 NE 15 16.09 Fair CLR 23 10 44% 76.43 0.0
02 18:15 N 17 16.09 Fair CLR 24 10 41% 25 76.43 0.0
02 17:55 NE 19 16.09 Fair CLR 24 10 41% 25 76.43 0.0
02 17:35 N 17 16.09 Fair CLR 24 10 41% 25 76.43 0.0
02 17:15 N 20 16.09 Fair CLR 24 11 44% 25 76.43 0.0
02 16:55 N 19 G 30 16.09 A Few Clouds FEW060 24 10 41% 25 76.43 0.0
02 16:35 N 22 16.09 Fair CLR 24 10 41% 25 76.45 0.0
02 16:15 N 17 16.09 Fair CLR 24 10 41% 25 76.45 0.0
02 15:55 N 19 16.09 Fair CLR 23 10 44% 76.48 0.0
02 15:35 NE 20 16.09 Fair CLR 23 10 44% 76.48 0.0
02 15:15 N 15 G 28 16.09 Fair CLR 23 11 47% 76.5 0.0
02 14:55 N 20 16.09 Fair CLR 23 11 47% 76.53 0.0
02 14:15 NE 20 G 30 16.09 A Few Clouds FEW050 23 10 44% 76.56 0.0
02 13:55 NE 17 G 30 16.09 Fair CLR 22 10 47% 76.58 0.0
02 13:35 N 24 16.09 Fair CLR 22 10 47% 76.58 0.0
02 12:55 NE 20 16.09 Fair CLR 22 10 47% 76.63 0.0
02 12:35 N 20 G 30 16.09 Fair CLR 21 10 50% 76.63 0.0
02 12:15 NE 22 16.09 Fair CLR 21 10 50% 76.63 0.0
02 11:55 NE 22 16.09 Fair CLR 21 10 50% 76.63 0.0
02 11:35 NE 22 16.09 Fair CLR 20 11 56% 76.63 0.0
02 11:15 NE 22 16.09 Fair CLR 20 11 56% 76.63 0.0
02 10:55 NE 22 16.09 Fair CLR 19 12 64% 76.63 0.0
02 10:35 NE 20 G 31 16.09 Fair CLR 19 12 64% 76.63 0.0
02 10:15 NE 24 16.09 Fair CLR 18 13 73% 76.61 0.0
02 09:55 NE 22 16.09 Fair CLR 18 13 73% 76.61 0.0
02 09:35 NE 22 16.09 Fair CLR 17 13 77% 76.61 0.0
02 09:15 NE 20 16.09 Fair CLR 16 13 83% 76.61 0.0
02 08:55 NE 17 16.09 Fair CLR 15 13 88% 76.58 0.0
02 08:35 N 19 16.09 Fair CLR 15 13 88% 76.56 0.0
02 08:15 N 20 16.09 Fair CLR 14 12 88% 76.56 0.0
02 07:55 N 19 14.48 Fair CLR 13 12 94% 76.53 0.0
02 07:35 N 17 16.09 Fair CLR 12 12 100% 76.48 0.0
02 07:15 N 15 14.48 Fair CLR 12 12 100% 76.48 0.0
02 06:55 N 9 14.48 Fair CLR 11 11 100% 76.48 0.0
02 06:35 N 7 16.09 Fair CLR 11 11 100% 76.45 0.0
02 06:15 N 13 16.09 Fair CLR 11 11 100% 76.43 0.0
02 05:55 N 17 16.09 Fair CLR 12 12 100% 76.4 0.0
02 05:35 N 13 16.09 Fair CLR 12 12 100% 76.4 0.0
02 05:15 N 11 16.09 Fair CLR 12 12 100% 76.38 0.0
02 04:55 N 13 16.09 Fair CLR 12 12 100% 76.35 0.0
02 04:35 NE 11 16.09 Fair CLR 12 12 100% 76.33 0.0
02 04:15 NE 13 16.09 A Few Clouds FEW050 13 12 94% 76.3 0.0
02 03:55 NE 13 16.09 Mostly Cloudy BKN050 13 12 94% 76.28 0.0
02 03:35 NE 15 16.09 Overcast OVC045 13 12 94% 76.25 0.0
02 03:15 NE 15 G 24 16.09 Overcast OVC043 13 12 94% 76.25 0.0
02 02:55 NE 17 16.09 Overcast OVC041 13 13 100% 76.25 0.0
02 02:35 NE 20 16.09 Overcast OVC040 13 13 100% 76.25 0.0
02 02:15 NE 15 16.09 Overcast OVC039 13 13 100% 76.25 0.0
02 01:55 NE 19 16.09 Overcast FEW013 OVC038 13 13 100% 76.28 0.0
02 01:35 NE 17 16.09 Overcast BKN013 OVC035 13 13 100% 76.28 0.0
02 01:15 NE 17 16.09 Overcast OVC011 14 13 94% 76.25 0.0
02 00:55 NE 19 16.09 Overcast OVC011 14 13 94% 76.25 0.0
02 00:35 NE 22 16.09 Overcast OVC012 14 13 94% 76.25 0.0
02 00:15 NE 24 G 35 16.09 Overcast OVC011 14 13 94% 76.25 0.0
01 23:55 NE 20 16.09 Overcast OVC011 14 14 100% 76.23 0.0
01 23:35 NE 22 16.09 Overcast BKN011 BKN035 OVC044 14 14 100% 76.23 0.0
01 23:15 NE 22 14.48 Mostly Cloudy FEW010 SCT013 BKN035 14 14 100% 76.23 0.0
01 22:55 NE 20 G 30 16.09 Overcast BKN013 OVC044 14 14 100% 76.23 0.0
01 22:35 N 22 16.09 Overcast SCT012 OVC046 14 14 100% 76.23 0.0
01 22:15 N 24 16.09 Overcast BKN012 OVC047 14 14 100% 76.2 0.0
Date Time (cdt) Wind (kph) Vis. (km) Weather Sky Cond. Air Dwpt Max. Min. Relative Humidity Wind Chill (°C) Heat Index (°C) altimeter (cm) sea level (mb) 1 hr 3 hr 6 hr
6 hour
Temperature (ºC) Pressure Precipitation (cm)